Location: Kellogg
(38.0159°N, 90.0546°W)
Time: 06:44:19
(UTC+00:00)

Vanguard 1 Rocket - Pass Details

Date: 22 September 2024
Orbit: 650 x 4218 km, 34.3° (Epoch: 05 October)

Event Time Altitude Azimuth Distance (km) Brightness Sun altitude
Rises 13:50:57 0° 284° (WNW) 6,817 11.3 22.9°
Reaches altitude 10° 13:55:05 10° 280° (W) 6,180 11.1 23.6°
Maximum altitude 14:15:31 50° 213° (SSW) 4,808 11.3 27.3°
Drops below altitude 10° 14:39:17 10° 147° (SSE) 6,992 13.0 31.5°
Sets 14:44:26 0° 142° (SE) 7,713 13.1 32.4°
